📊 Raw Sensor Data

Showing records 40651 to 40675 of 84,968 total

ID Distance (ft) Battery V Battery A Int Temp (°F) Int Humid (%) Ext Temp (°F) Solar V RSSI SNR Time Stamp
44330 15.9 3.94 0 106 45 100 5.10 -70 8 06/23/2025 05:00 PM
44329 15.9 3.95 0 105 45 96 5.10 -69 8 06/23/2025 04:45 PM
44328 15.8 3.94 0 104 45 91 5.10 -69 8 06/23/2025 04:30 PM
44327 15.9 3.94 0 105 44 96 5.10 -70 8 06/23/2025 04:15 PM
44326 15.9 4.01 0 104 43 94 5.10 -69 8 06/23/2025 04:00 PM
44325 15.8 3.94 0 103 43 93 5.10 -69 8 06/23/2025 03:45 PM
44324 15.8 3.94 0 101 43 93 5.10 -69 8 06/23/2025 03:30 PM
44323 15.8 3.94 0 100 42 91 5.10 -70 8 06/23/2025 03:15 PM
44322 15.8 3.94 0 99 42 91 5.10 -68 8 06/23/2025 03:00 PM
44321 15.8 3.95 0 98 42 89 5.10 -69 8 06/23/2025 02:45 PM
44320 15.8 3.97 0 98 41 88 5.10 -70 8 06/23/2025 02:30 PM
44319 15.8 3.94 0 96 42 90 5.10 -69 8 06/23/2025 02:15 PM
44318 15.8 4.05 0 95 42 87 5.10 -71 8 06/23/2025 02:00 PM
44317 15.8 4.09 0 94 42 86 5.10 -70 7 06/23/2025 01:45 PM
44316 15.8 3.94 0 93 42 86 5.10 -70 7 06/23/2025 01:30 PM
44315 15.8 3.93 0 92 42 87 5.10 -71 8 06/23/2025 01:15 PM
44314 15.8 3.93 0 90 42 84 5.10 -70 7 06/23/2025 01:00 PM
44313 15.8 3.93 0 88 43 82 5.10 -71 7 06/23/2025 12:45 PM
44312 15.8 3.93 0 87 44 83 5.10 -69 8 06/23/2025 12:30 PM
44311 15.8 3.93 0 86 44 81 5.10 -69 8 06/23/2025 12:15 PM
44310 15.8 4.09 0 86 43 81 5.10 -70 8 06/23/2025 12:00 PM
44309 15.9 3.98 0 85 43 83 5.10 -71 8 06/23/2025 11:45 AM
44308 15.8 3.94 0 84 43 84 5.10 -71 8 06/23/2025 11:30 AM
44307 15.8 4.05 0 84 42 81 5.10 -71 7 06/23/2025 11:15 AM
44306 15.9 3.98 0 83 42 87 5.10 -71 7 06/23/2025 11:00 AM